Location: Unspecified
(41.5000°N, 0.0000°E)
Time: 01:14:26
(UTC+00:00)

A-11 Canister half - Pass Details

Date: 04 July 2019
Orbit: 1527 x 1682 km, 47.3° (Epoch: 13 October)

Event Time Altitude Azimuth Distance (km) Brightness Sun altitude
Exits shadow 02:35:16 10° 257° (WSW) 3,831 10.6 -16.7°
Reaches altitude 10° 02:35:21 10° 257° (WSW) 3,806 10.6 -16.7°
Maximum altitude 02:45:00 73° 342° (NNW) 1,619 9.2 -15.6°
Drops below altitude 10° 02:54:24 10° 67° (ENE) 3,711 12.0 -14.5°
Sets 02:57:26 0° 70° (ENE) 4,686 12.7 -14.1°
